DW8780 Weather Reports


time (UTC)temp
F
wind
direction
speed
knots
gust
knots
rain 1hr
in
rain 24hr
in
rain mn
in
humidity
%
barometer
mb
20260507040503 63 340 0.0 1.7 0.00 0.02 0.00 90 1010.3
20260507035503 63 320 0.0 1.7 0.00 0.02 0.02 89 1010.2
20260507034503 63 319 0.0 1.7 0.00 0.02 0.02 88 1010.0
20260507033503 64 358 0.0 1.7 0.00 0.02 0.02 88 1009.8
20260507033003 64 1 0.9 1.7 0.00 0.02 0.02 88 1009.6
20260507032504 64 2 0.9 1.7 0.00 0.02 0.02 88 1009.6
20260507032004 64 1 0.9 2.6 0.00 0.02 0.02 88 1009.6
20260507031504 64 1 0.9 2.6 0.00 0.02 0.02 88 1009.6
20260507030004 64 2 0.9 2.6 0.00 0.02 0.02 88 1009.9
20260507025503 64 1 0.9 3.5 0.00 0.02 0.02 88 1010.0
20260507025003 64 359 0.9 3.5 0.00 0.02 0.02 88 1010.0
20260507024504 64 359 0.9 2.6 0.00 0.02 0.02 88 1009.9
20260507024003 64 1 0.9 1.7 0.00 0.02 0.02 87 1010.0
20260507023504 64 1 0.9 1.7 0.00 0.02 0.02 87 1010.1
20260507022504 64 2 0.0 1.7 0.00 0.02 0.02 87 1010.3
20260507022003 64 355 0.0 1.7 0.00 0.02 0.02 86 1010.2
20260507021503 64 1 0.0 1.7 0.00 0.02 0.02 86 1010.2
20260507020504 65 343 0.0 1.7 0.00 0.02 0.02 85 1010.2
20260507020003 65 339 0.0 1.7 0.00 0.02 0.02 85 1010.4
20260507015504 65 93 0.0 1.7 0.00 0.02 0.02 85 1010.3
20260507015003 65 95 0.0 1.7 0.00 0.02 0.02 84 1010.3
20260507014504 65 5 0.0 1.7 0.00 0.02 0.02 84 1010.7
20260507014003 66 3 0.9 1.7 0.00 0.02 0.02 84 1010.7
20260507013504 66 357 0.9 1.7 0.00 0.02 0.02 84 1010.6
20260507013003 66 342 0.0 1.7 0.00 0.02 0.02 84 1010.5
20260507012004 66 8 0.0 1.7 0.00 0.02 0.02 84 1010.3
20260507011503 66 12 0.0 1.7 0.00 0.02 0.02 84 1010.3
20260507010503 66 43 0.0 1.7 0.00 0.02 0.02 84 1010.2
20260507010003 66 34 0.0 1.7 0.00 0.02 0.02 83 1010.2
20260507005504 66 57 0.0 1.7 0.00 0.02 0.02 83 1010.1
20260507005003 66 7 0.0 0.9 0.00 0.02 0.02 82 1010.3
20260507004004 67 342 0.0 1.7 0.00 0.02 0.02 81 1010.2
20260507003503 67 330 0.0 1.7 0.00 0.02 0.02 81 1010.1
20260507003005 67 332 0.0 1.7 0.00 0.02 0.02 81 1009.9
20260507002503 67 322 0.0 2.6 0.00 0.02 0.02 80 1009.9
20260507001504 68 327 0.9 2.6 0.00 0.02 0.02 80 1009.9
20260507001004 68 321 0.9 1.7 0.00 0.02 0.02 79 1009.8
20260507000003 68 344 0.9 2.6 0.00 0.02 0.02 79 1009.7
20260506235503 69 351 0.9 2.6 0.00 0.02 0.02 78 1009.7
20260506235003 69 340 0.9 2.6 0.00 0.02 0.02 78 1009.7
20260506234004 69 352 0.9 2.6 0.00 0.02 0.02 77 1009.7
20260506233503 69 340 0.9 3.5 0.00 0.02 0.02 77 1009.6
20260506233004 69 335 0.9 3.5 0.00 0.02 0.02 76 1009.6
20260506232503 70 346 0.9 6.1 0.00 0.02 0.02 77 1009.6
20260506232003 70 336 1.7 6.1 0.00 0.02 0.02 76 1009.5
20260506231504 70 335 1.7 6.1 0.00 0.02 0.02 76 1009.5
20260506231003 70 337 1.7 5.2 0.00 0.02 0.02 76 1009.6
20260506230504 70 320 1.7 5.2 0.00 0.02 0.02 76 1009.7
20260506230004 70 309 1.7 4.3 0.00 0.02 0.02 75 1009.7
20260506225503 70 323 1.7 5.2 0.00 0.02 0.02 76 1009.7
20260506225003 70 336 2.6 7.0 0.00 0.02 0.02 75 1009.6
20260506224504 70 348 2.6 11.3 0.00 0.02 0.02 75 1009.7
20260506224003 70 329 3.5 12.2 0.00 0.02 0.02 75 1009.7
20260506223504 70 313 2.6 12.2 0.00 0.02 0.02 75 1009.7
20260506223003 70 332 2.6 7.0 0.00 0.02 0.02 75 1009.7
20260506222502 70 331 2.6 9.6 0.00 0.02 0.02 75 1009.6
20260506222002 70 317 2.6 9.6 0.00 0.02 0.02 75 1009.6
20260506221502 70 320 2.6 7.8 0.00 0.02 0.02 74 1009.7
20260506221003 70 317 3.5 8.7 0.00 0.02 0.02 75 1009.7
20260506220503 70 323 4.3 12.2 0.00 0.02 0.02 75 1009.8
20260506220002 70 335 3.5 12.2 0.00 0.02 0.02 75 1009.7
20260506215504 70 334 2.6 12.2 0.00 0.02 0.02 75 1009.6
20260506215002 70 332 2.6 7.0 0.00 0.02 0.02 75 1009.5
20260506214503 70 337 2.6 11.3 0.00 0.02 0.02 75 1009.6
20260506214002 70 337 3.5 11.3 0.00 0.02 0.02 75 1009.6
20260506213502 70 338 3.5 9.6 0.00 0.02 0.02 75 1009.6
20260506213002 70 331 3.5 9.6 0.00 0.02 0.02 75 1009.5
20260506212503 70 332 4.3 16.5 0.00 0.02 0.02 75 1009.5
20260506211002 70 339 3.5 11.3 0.00 0.02 0.02 75 1009.5
20260506210503 70 348 3.5 11.3 0.00 0.02 0.02 75 1009.5
20260506210002 70 348 4.3 15.6 0.00 0.02 0.02 75 1009.5
20260506205503 70 340 4.3 15.6 0.00 0.02 0.02 74 1009.5
20260506204004 70 334 4.3 13.0 0.00 0.02 0.02 74 1009.7
20260506203503 70 338 4.3 13.0 0.00 0.02 0.02 74 1009.6
20260506203002 70 338 3.5 8.7 0.00 0.02 0.02 74 1009.6
20260506202503 70 342 3.5 11.3 0.00 0.02 0.02 74 1009.4
20260506202004 70 348 4.3 11.3 0.00 0.02 0.02 74 1009.6
20260506201503 70 350 4.3 9.6 0.00 0.02 0.02 73 1009.6
20260506201003 70 339 4.3 12.2 0.00 0.02 0.02 74 1009.7
20260506200502 70 341 5.2 18.2 0.00 0.02 0.02 74 1009.7
20260506200003 71 348 5.2 18.2 0.00 0.02 0.02 74 1009.6
20260506195504 71 339 4.3 16.5 0.00 0.02 0.02 74 1009.9
20260506195003 71 342 3.5 9.6 0.00 0.02 0.02 74 1010.2
20260506194503 71 347 3.5 9.6 0.00 0.02 0.02 73 1010.2
20260506194003 71 344 3.5 8.7 0.00 0.02 0.02 73 1010.4
20260506193503 71 349 4.3 13.0 0.00 0.02 0.02 73 1010.5
20260506193003 71 346 5.2 13.0 0.00 0.02 0.02 73 1010.1
20260506192504 71 348 6.1 17.4 0.00 0.02 0.02 73 1009.9
20260506191502 71 355 5.2 15.6 0.00 0.02 0.02 74 1009.8
20260506191003 71 351 6.1 15.6 0.00 0.02 0.02 74 1010.0
20260506190502 70 346 4.3 16.5 0.00 0.02 0.02 75 1010.3
20260506190003 70 340 3.5 16.5 0.00 0.02 0.02 75 1010.5
20260506185503 70 337 4.3 12.2 0.00 0.02 0.02 76 1010.5
20260506185002 70 345 5.2 15.6 0.00 0.02 0.02 75 1010.7
20260506184503 70 350 6.1 15.6 0.00 0.02 0.02 75 1010.7
20260506184003 69 355 6.1 18.2 0.00 0.02 0.02 77 1010.6
20260506183502 69 355 6.1 18.2 0.00 0.02 0.02 77 1010.6
20260506183002 69 350 5.2 15.6 0.00 0.02 0.02 79 1010.7
20260506182502 69 348 5.2 17.4 0.00 0.02 0.02 79 1010.6
20260506182002 68 351 6.1 17.4 0.00 0.02 0.02 79 1010.4
20260506181502 68 351 5.2 16.5 0.00 0.02 0.02 82 1010.7
20260506181003 68 345 4.3 13.9 0.00 0.02 0.02 83 1010.9
20260506180002 67 349 3.5 11.3 0.00 0.02 0.02 86 1011.0
20260506175502 67 352 4.3 11.3 0.01 0.02 0.02 86 1010.9
20260506175003 67 352 4.3 10.4 0.01 0.02 0.02 86 1011.0
20260506174502 66 348 3.5 10.4 0.01 0.02 0.02 86 1011.1
20260506174003 66 353 3.5 10.4 0.01 0.02 0.02 87 1011.1
20260506173502 66 354 3.5 15.6 0.01 0.02 0.02 88 1011.0
20260506172502 66 356 4.3 14.8 0.01 0.02 0.02 87 1011.1
20260506172002 66 1 4.3 14.8 0.01 0.02 0.02 87 1011.1
20260506170502 66 355 4.3 13.9 0.02 0.02 0.02 87 1011.5
20260506170003 66 354 4.3 13.9 0.02 0.02 0.02 87 1011.6
20260506165502 66 356 4.3 17.4 0.01 0.01 0.01 86 1011.4
20260506165002 66 356 3.5 17.4 0.01 0.01 0.01 85 1011.6
20260506164502 66 356 4.3 11.3 0.01 0.01 0.01 86 1011.7
20260506164002 66 358 4.3 11.3 0.01 0.01 0.01 85 1011.8
20260506163503 66 359 4.3 11.3 0.01 0.01 0.01 85 1011.9
20260506163002 65 356 3.5 11.3 0.01 0.01 0.01 84 1012.0
20260506162002 66 355 3.5 17.4 0.01 0.01 0.01 83 1012.3
20260506161502 66 353 4.3 17.4 0.01 0.01 0.01 83 1012.2
20260506161003 66 355 3.5 14.8 0.01 0.01 0.01 82 1012.4
20260506160502 67 357 4.3 13.0 0.00 0.00 0.00 82 1012.5
20260506160002 67 352 4.3 13.0 0.00 0.00 0.00 79 1012.5
20260506155503 68 353 3.5 10.4 0.00 0.00 0.00 78 1012.4
20260506155002 68 355 3.5 13.9 0.00 0.00 0.00 73 1012.6
20260506154502 69 345 4.3 16.5 0.00 0.00 0.00 73 1012.7
20260506154002 69 342 3.5 16.5 0.00 0.00 0.00 73 1012.6
20260506153502 69 348 3.5 10.4 0.00 0.00 0.00 73 1012.6
20260506153002 69 347 5.2 12.2 0.00 0.00 0.00 73 1012.6
20260506152502 69 342 5.2 15.6 0.00 0.00 0.00 72 1012.6
20260506150002 71 337 3.5 10.4 0.00 0.00 0.00 68 1012.4
20260506145504 70 332 3.5 8.7 0.00 0.00 0.00 66 1012.4
20260506145002 70 334 3.5 15.6 0.00 0.00 0.00 67 1012.5
20260506144503 70 339 4.3 15.6 0.00 0.00 0.00 66 1012.6
20260506144002 70 335 4.3 12.2 0.00 0.00 0.00 66 1012.5
20260506143503 70 329 5.2 19.1 0.00 0.00 0.00 66 1012.4
20260506143003 70 334 5.2 19.1 0.00 0.00 0.00 66 1012.4
20260506142002 71 344 6.1 17.4 0.00 0.00 0.00 65 1012.4
20260506141504 71 353 5.2 16.5 0.00 0.00 0.00 66 1012.3
20260506141002 71 345 6.1 16.5 0.00 0.00 0.00 66 1012.3
20260506140502 71 351 6.1 16.5 0.00 0.00 0.00 66 1012.3
20260506140002 71 357 5.2 14.8 0.00 0.00 0.00 66 1012.2
20260506135503 71 355 6.1 18.2 0.00 0.00 0.00 67 1012.4
20260506135003 71 355 6.1 18.2 0.00 0.00 0.00 66 1012.3
20260506134503 71 357 5.2 18.2 0.00 0.00 0.00 66 1012.3
20260506134002 71 356 5.2 18.2 0.00 0.00 0.00 67 1012.6
20260506133502 70 355 5.2 15.6 0.00 0.00 0.00 67 1012.5
20260506133003 70 353 5.2 19.1 0.00 0.00 0.00 68 1012.7
20260506132502 70 356 5.2 19.1 0.00 0.00 0.00 68 1012.6
20260506132003 70 353 4.3 11.3 0.00 0.00 0.00 68 1012.6
20260506131502 70 352 5.2 13.9 0.00 0.00 0.00 68 1012.5
20260506130503 69 355 5.2 20.9 0.00 0.00 0.00 70 1012.6
20260506125502 68 353 5.2 17.4 0.00 0.00 0.00 70 1012.9
20260506125003 69 353 5.2 17.4 0.00 0.00 0.00 70 1012.8
20260506124503 69 356 4.3 18.2 0.00 0.00 0.00 70 1012.8
20260506124003 68 353 4.3 18.2 0.00 0.00 0.00 71 1013.1
20260506123502 68 339 4.3 13.0 0.00 0.00 0.00 72 1013.0
20260506123002 67 343 3.5 12.2 0.00 0.00 0.00 72 1013.1
20260506122503 67 350 3.5 10.4 0.00 0.00 0.00 73 1013.3
20260506121502 67 343 4.3 13.0 0.00 0.00 0.00 72 1013.0
20260506121003 67 346 4.3 20.0 0.00 0.00 0.00 72 1013.1
20260506120002 67 349 4.3 17.4 0.00 0.00 0.00 72 1012.9
20260506115002 66 358 4.3 13.9 0.00 0.00 0.00 72 1012.7
20260506114502 66 352 4.3 13.9 0.00 0.00 0.00 73 1012.9
20260506114003 65 345 4.3 11.3 0.00 0.00 0.00 73 1012.9
20260506113503 65 347 4.3 11.3 0.00 0.00 0.00 73 1012.8
20260506113003 65 357 4.3 11.3 0.00 0.00 0.00 73 1012.6
20260506112003 65 346 4.3 11.3 0.00 0.00 0.00 73 1012.7
20260506111002 65 1 4.3 14.8 0.00 0.00 0.00 73 1012.6
20260506110003 65 356 4.3 12.2 0.00 0.00 0.00 73 1012.5
20260506105502 65 359 4.3 12.2 0.00 0.00 0.00 73 1012.4
20260506105003 64 354 3.5 9.6 0.00 0.00 0.00 73 1012.5
20260506104502 64 352 3.5 9.6 0.00 0.00 0.00 74 1012.5
20260506104003 64 355 3.5 10.4 0.00 0.00 0.00 73 1012.6
20260506103502 64 357 4.3 11.3 0.00 0.00 0.00 74 1012.6
20260506103003 64 356 3.5 11.3 0.00 0.00 0.00 73 1012.7
20260506102502 64 352 3.5 9.6 0.00 0.00 0.00 73 1012.7
20260506102003 64 354 3.5 9.6 0.00 0.00 0.00 73 1012.9
20260506101503 64 354 3.5 9.6 0.00 0.00 0.00 72 1012.7
20260506101002 64 355 2.6 9.6 0.00 0.00 0.00 72 1012.8
20260506100502 64 355 2.6 9.6 0.00 0.00 0.00 72 1012.6
20260506095503 64 349 3.5 13.9 0.00 0.00 0.00 72 1012.6
20260506095003 64 354 4.3 13.9 0.00 0.00 0.00 72 1012.6
20260506094502 64 355 3.5 12.2 0.00 0.00 0.00 72 1012.4
20260506093002 64 1 4.3 13.9 0.00 0.00 0.00 72 1012.4
20260506092502 64 359 3.5 8.7 0.00 0.00 0.00 73 1012.4
20260506092002 64 358 3.5 8.7 0.00 0.00 0.00 72 1012.6
20260506091502 64 355 3.5 9.6 0.00 0.00 0.00 72 1012.6
20260506090502 64 345 4.3 11.3 0.00 0.00 0.00 71 1012.5
20260506090003 65 344 3.5 11.3 0.00 0.00 0.00 71 1012.6
20260506085502 65 351 3.5 13.9 0.00 0.00 0.00 71 1012.4
20260506085002 65 352 4.3 13.9 0.00 0.00 0.00 71 1012.6
20260506084502 65 353 3.5 12.2 0.00 0.00 0.00 71 1012.7
20260506084002 65 353 4.3 12.2 0.00 0.00 0.00 71 1012.7
20260506083502 65 351 4.3 12.2 0.00 0.00 0.00 71 1012.9
20260506083003 65 347 3.5 13.9 0.00 0.00 0.00 71 1012.9
20260506082502 65 350 3.5 13.9 0.00 0.00 0.00 71 1012.9
20260506082003 65 349 2.6 12.2 0.00 0.00 0.00 71 1013.0
20260506081503 65 343 3.5 12.2 0.00 0.00 0.00 71 1012.9
20260506081002 65 330 3.5 12.2 0.00 0.00 0.00 71 1012.8
20260506073503 65 344 3.5 10.4 0.00 0.00 0.00 72 1012.9
20260506073003 65 339 3.5 12.2 0.00 0.00 0.00 72 1013.0
20260506072502 65 349 2.6 15.6 0.00 0.00 0.00 73 1013.0
20260506072003 66 353 2.6 15.6 0.00 0.00 0.00 73 1012.9
20260506071502 66 356 2.6 12.2 0.00 0.00 0.00 73 1012.9
20260506071002 66 353 3.5 13.0 0.00 0.00 0.00 73 1012.9
20260506070503 66 354 3.5 13.0 0.00 0.00 0.00 73 1013.0
20260506062503 66 1 4.3 12.2 0.00 0.00 0.00 72 1013.2
20260506062002 66 1 4.3 10.4 0.00 0.00 0.00 72 1013.1
20260506061502 67 357 4.3 14.8 0.00 0.00 0.00 72 1013.2
20260506061004 67 357 4.3 14.8 0.00 0.00 0.00 72 1013.2
20260506060502 67 358 3.5 11.3 0.00 0.00 0.00 71 1013.2
20260506051003 68 355 4.3 15.6 0.00 0.00 0.00 69 1013.4
20260506050502 68 356 5.2 15.6 0.00 0.00 0.00 69 1013.6
20260506045003 68 3 4.3 18.2 0.00 0.00 0.00 69 1013.6
20260506044502 69 4 5.2 18.2 0.00 0.00 0.00 69 1013.6
20260506043503 69 353 4.3 13.9 0.00 0.00 0.00 69 1013.7
20260506043003 69 359 5.2 14.8 0.00 0.00 0.00 69 1013.7
20260506041502 69 354 4.3 15.6 0.00 0.00 0.00 69 1013.7
20260506041002 69 359 4.3 13.0 0.00 0.00 0.00 69 1013.5